Forum


Ask a question

No. FLOSS Question Date
Views
Answers
1 OpenFOAM Regarding this error 2021-04-07 03:47:18.194977 26 1
2 OpenFOAM Let the accounting assignment help to finish your assignments on time 2021-03-13 08:46:19.380646 80 4
3 OpenFOAM how i can add the scale function in open foam 2021-03-03 14:40:11.622886 94 2
4 OpenFOAM boundary conditions 2021-02-27 11:09:12.451700 100 1
5 OpenFOAM Value of diffusion coefficient in scalar transport foam 2021-02-18 05:06:23.346334 119 2
6 OpenFOAM Power Law boundary inlet velocity condition 2021-02-06 08:52:36.277770 139 1
7 OpenFOAM Which Company Provide Best landing page designing services In delhi? 2021-02-05 10:18:28.414243 113 0
8 OpenFOAM Wing Motion - Dynamic Mesh using pimpleFoam 2021-01-27 05:08:21.835917 182 3
9 OpenFOAM Faulty mobile download application? 2021-01-09 07:12:14.335900 38 3
10 OpenFOAM Incorrect lift co-efficients with buoyantBoussinesqPimpleFoam 2020-12-28 07:14:52.246656 231 4
11 OpenFOAM MPI parallel run issue for RBF motion solver in foam extend 4.0 2020-12-09 08:56:18.424466 238 2
12 OpenFOAM Openfoam cannot find a single face in the mesh which uses vertices 2020-12-02 16:42:03.926873 243 1
13 OpenFOAM Decreasing the value of y+ 2020-11-29 11:34:07.125783 257 1
14 OpenFOAM Obtaining csv data from xy plot in Paraview 2020-11-05 13:06:17.962619 282 1
15 OpenFOAM 2d pressure swirl atomizer using vof 2020-11-03 17:37:17.735673 384 9
16 OpenFOAM How to create ZeroThicknessWall in SnappyHexMesh? Also Can I use toposet (or splitmesh) to create zone for adding momentum source in buoyantBoussinesqFoams? 2020-10-29 12:43:31.890430 370 4
17 OpenFOAM Difference between foam and algorithm in openfoam 2020-10-29 07:48:12.297067 292 1
18 OpenFOAM Radial Basis Function (RBF) mesh motion solver for pitching motion 2020-10-28 17:35:49.862215 334 1
19 OpenFOAM Types of dynamic mesh motion solver for pitching airfoil 2020-10-28 15:58:19.216544 390 1
20 OpenFOAM AMR to capture shocks 2020-10-24 13:20:43.707589 314 2
21 OpenFOAM Non-Dimensional Contour Plots 2020-10-23 14:01:06.296716 294 3
22 OpenFOAM Problem before Instaling OPENFOAM 2020-09-19 12:46:45.788734 392 2
23 OpenFOAM Large eddy simulation 2020-08-12 05:34:28.148779 448 1
24 OpenFOAM Regarding error in new expression syntax in openfoam 1912 2020-07-15 16:04:36.767775 445 1
25 OpenFOAM How to update supply temperature on boundary based on the measured temperature on another boundary patch in OpenFOAM? 2020-07-03 13:26:43.962960 484 1
26 OpenFOAM PostProcess for OpenFOAM1606+ 2020-06-16 12:37:39.980929 501 1
27 OpenFOAM Mesh generation using blockMesh utility 2020-03-02 11:13:02.251839 694 10
28 OpenFOAM Convergence problem in steady state simulation of centrifugal fan in openfoam 2019-11-22 07:55:27.815884 1177 1
29 OpenFOAM Where to add new field while using dsmcfoam? 2019-11-22 04:17:40.010364 847 3
30 OpenFOAM Error: Pcorr goes to nan. (Diverging) 2019-09-12 16:37:05.219232 688 3
31 OpenFOAM Help me choose MFEM vs deal_ii 2019-08-29 07:35:13.851320 654 2
32 OpenFOAM Choosing appropriate boundary conditions for turbulent quantities 2019-08-13 01:54:04.383335 689 1
33 OpenFOAM Multiple AMI, decreasing time step. 2019-07-15 09:42:15.003499 767 1
34 OpenFOAM Inlet Velocity 2019-06-28 12:53:09.638190 776 4
35 OpenFOAM No creation of processed files even after running. 2019-02-06 15:56:59.781942 793 1
36 OpenFOAM Choosing exact boundary conditions 2018-12-18 04:31:26.729700 1014 1
37 OpenFOAM Regarding Proposal 2018-12-17 05:59:28.228096 834 1
38 OpenFOAM Query regarding heat flux boundary condition in OpenFOAM 2018-12-16 12:40:09.657563 821 1
39 OpenFOAM Heat flux boundary condition in OpenFOAM 2018-12-14 19:44:13.938906 2181 1
40 OpenFOAM Boundary condition at inlet 2018-11-10 18:46:57.000000 1039 2
41 OpenFOAM Foam::error::printStack(Foam::Ostream&) at ??:? 2018-09-27 06:00:30.000000 2830 1
42 OpenFOAM Continuity error cannot be removed by adjusting the outflow. 2018-09-19 07:52:53.000000 2499 1
43 OpenFOAM Convergence in Open Foam Simulation 2018-07-13 13:10:12.000000 953 1
44 OpenFOAM Salome bentpipe to OpenFOAM 2018-07-01 21:39:30.000000 988 1
45 OpenFOAM Using multiInteraction type patchInteractionModel 2018-05-16 06:46:43.000000 1072 1
46 OpenFOAM Why Initial residual is not equal to the final residual obtained from the previous iteration in case of fvDOM radiation solver? 2018-03-07 06:08:09.000000 1410 1
47 OpenFOAM Looking for Solver for Three Phase Heat Transfer with phase change for Cryogenic System 2017-11-29 05:15:20.000000 1128 1
48 OpenFOAM Resource persons for OPENFOAM Software. 2017-11-22 09:29:39.000000 1068 1
49 OpenFOAM diffusivity directional variables 2017-08-30 12:50:18.000000 1249 1
50 OpenFOAM change of volume inside pipe 2017-08-11 11:55:39.000000 1181 3
51 OpenFOAM OpenFOAM Issue with Porous Media and Buoyancy 2017-08-02 07:11:23.000000 7883 1
52 OpenFOAM vertical loading in interfoam 2017-07-11 15:10:27.000000 1134 1
53 OpenFOAM Convergence while using icoFoam 2017-07-06 09:39:26.000000 1284 1
54 OpenFOAM Simulation Of Flow over cylinder with forward splitter plate 2017-07-03 15:49:32.000000 1139 1
55 OpenFOAM OpenFOAM-1.6.x Installation Error 2017-06-07 10:18:39.000000 1196 1
56 OpenFOAM Dynamic Moving Mesh 2017-05-20 12:08:53.000000 1128 1
57 OpenFOAM How to Create Baffles in Geometry 2017-05-17 10:17:39.000000 3056 1
58 OpenFOAM How to create a internal gate? 2017-04-25 11:30:22.000000 1515 1
59 OpenFOAM Cannot find flow at bottom surface_slump test 2017-04-25 11:17:15.000000 1203 4
60 OpenFOAM plotting at a definite point 2017-04-14 14:01:59.000000 1270 1
61 OpenFOAM getting time-average flow fields within certain time interval 2017-04-09 06:48:05.000000 1933 1
62 OpenFOAM plotting skin friction coefficient 2017-04-03 04:28:55.000000 2524 1
63 OpenFOAM laminar separation bubble 2017-04-02 08:04:30.000000 1082 1
64 OpenFOAM SnappyHexMesh Tutorial 2017-04-01 06:01:29.000000 1583 1
65 OpenFOAM pressure plot in paraFoam 2017-03-27 01:22:03.000000 2172 1
66 OpenFOAM post-processing in paraview 2017-03-10 11:24:48.000000 1620 1
67 OpenFOAM How to find/call each individual cell in a computational domain 2017-03-08 13:50:24.000000 3101 3
68 OpenFOAM multiPhaseEulerFoam case running issue.. 2017-01-17 17:47:23.000000 1608 1
69 OpenFOAM Basic queries regarding cad, mesh and sim 2017-01-16 08:39:10.000000 1214 2
70 OpenFOAM post-processing problem 2016-11-23 13:36:35.000000 1504 1
71 OpenFOAM problem in results 2016-11-21 07:10:46.000000 1238 2
72 OpenFOAM openfoam to firefoam throuh paraview? 2016-11-01 15:07:10.000000 1810 3
73 OpenFOAM No vortex shedding 2016-10-31 05:55:03.000000 1271 1
74 OpenFOAM paraview tools 2016-10-21 05:07:48.000000 1337 1
75 OpenFOAM error while running a solver 2016-10-13 18:09:34.000000 6134 1
76 OpenFOAM SurfaceTracking 2016-10-06 12:32:53.000000 1308 1
77 OpenFOAM boundary condition 2016-09-26 17:04:35.000000 1186 1
78 OpenFOAM plotting the residuals 2016-08-23 14:45:56.000000 2453 1
79 OpenFOAM plotting in paraview 2016-08-16 09:47:55.000000 1237 2
80 OpenFOAM co-efficient of drag and lift 2016-08-03 10:15:57.000000 1448 4
81 OpenFOAM opemFoam 2016-08-02 10:02:33.000000 1393 2
82 OpenFOAM PROBLEM 2016-07-21 04:44:36.000000 1401 1
83 OpenFOAM blockmeshdict file 2016-06-23 05:50:12.000000 1424 1
84 OpenFOAM Writing blockMeshDict file 2016-06-14 04:06:00.000000 1446 1
85 OpenFOAM object inspector menu in paraview 2016-05-25 10:04:12.000000 1660 1
86 OpenFOAM TROUBLE IN SIMULATION 2016-05-15 04:19:14.000000 1685 2
87 OpenFOAM Simulation of Euler-lagrangian bubble using OpenFOAM 2016-05-11 12:28:45.000000 2133 2
88 OpenFOAM OPENFOAM IN WINDOWS 2016-05-10 08:35:05.000000 1806 1
89 OpenFOAM How to plot a graph in Open foam 2016-04-24 17:18:48.000000 2373 1
90 OpenFOAM Error in Turbulence Solver 2016-03-18 18:16:37.000000 7189 6
91 OpenFOAM Simulation error (delta T is decreasing while the iterations are being carried out) 2016-03-12 19:12:05.000000 6353 5
92 OpenFOAM charger making sparking like noise 2015-08-31 13:33:10.000000 1454 1